TimeEDT,TemperatureF,Dew PointF,Humidity,Sea Level PressureIn,VisibilityMPH,Wind Direction,Wind SpeedMPH,Gust SpeedMPH,PrecipitationIn,Events,Conditions,WindDirDegrees,DateUTC
12:52 AM,55.9,53.1,90,29.95,10.0,Calm,Calm,-,N/A,,Overcast,0,2013-05-08 04:52:00
1:52 AM,55.9,53.1,90,29.94,10.0,Calm,Calm,-,N/A,,Overcast,0,2013-05-08 05:52:00
2:52 AM,55.9,53.1,90,29.92,10.0,South,4.6,-,N/A,,Overcast,170,2013-05-08 06:52:00
3:52 AM,55.0,53.1,93,29.93,10.0,South,3.5,-,N/A,,Overcast,170,2013-05-08 07:52:00
4:52 AM,53.1,52.0,96,29.93,10.0,South,3.5,-,N/A,,Partly Cloudy,170,2013-05-08 08:52:00
5:52 AM,52.0,51.1,97,29.94,8.0,South,3.5,-,N/A,,Partly Cloudy,190,2013-05-08 09:52:00
6:52 AM,52.0,51.1,97,29.96,7.0,Calm,Calm,-,N/A,,Mostly Cloudy,0,2013-05-08 10:52:00
7:52 AM,55.0,53.1,93,29.97,10.0,Calm,Calm,-,N/A,,Mostly Cloudy,0,2013-05-08 11:52:00
8:52 AM,57.9,54.0,87,29.99,10.0,Calm,Calm,-,N/A,,Mostly Cloudy,0,2013-05-08 12:52:00
9:52 AM,62.1,55.0,78,29.99,10.0,SSW,3.5,-,N/A,,Mostly Cloudy,210,2013-05-08 13:52:00
10:52 AM,66.9,55.9,68,30.00,10.0,SSW,8.1,-,N/A,,Mostly Cloudy,200,2013-05-08 14:52:00
11:52 AM,70.0,54.0,57,29.99,10.0,SW,8.1,-,N/A,,Partly Cloudy,230,2013-05-08 15:52:00
12:52 PM,70.0,52.0,53,29.97,10.0,WSW,11.5,17.3,N/A,,Mostly Cloudy,240,2013-05-08 16:52:00
1:52 PM,72.0,52.0,49,29.96,10.0,WSW,9.2,-,N/A,,Mostly Cloudy,240,2013-05-08 17:52:00
2:52 PM,73.0,54.0,51,29.96,10.0,WSW,5.8,-,N/A,,Mostly Cloudy,250,2013-05-08 18:52:00
3:52 PM,73.0,55.0,53,29.95,10.0,WSW,9.2,-,N/A,,Mostly Cloudy,250,2013-05-08 19:52:00
4:52 PM,73.9,51.1,45,29.94,10.0,West,11.5,-,N/A,,Scattered Clouds,280,2013-05-08 20:52:00
5:52 PM,73.0,53.1,49,29.94,10.0,West,6.9,-,N/A,,Mostly Cloudy,270,2013-05-08 21:52:00
6:52 PM,73.0,55.0,53,29.94,10.0,WSW,5.8,-,N/A,,Mostly Cloudy,250,2013-05-08 22:52:00
7:52 PM,70.0,55.9,61,29.96,10.0,WSW,3.5,-,N/A,,Mostly Cloudy,250,2013-05-08 23:52:00
8:52 PM,66.9,55.9,68,29.98,10.0,West,3.5,-,N/A,,Mostly Cloudy,280,2013-05-09 00:52:00
9:52 PM,64.0,55.9,75,30.00,10.0,North,3.5,-,N/A,,Mostly Cloudy,350,2013-05-09 01:52:00
10:52 PM,62.1,55.0,78,30.01,10.0,North,3.5,-,N/A,,Mostly Cloudy,350,2013-05-09 02:52:00
11:52 PM,62.1,55.9,80,30.01,10.0,Calm,Calm,-,N/A,,Mostly Cloudy,0,2013-05-09 03:52:00